User: anonymous   Login
Location: Camp Creek
(33.9000°N, 111.8167°W)
Time: 01:12:52
(UTC-07:00)
Language:

DELTA 2 R/B (1) - Orbit

View from above orbital plane
View from above orbital plane
View from above satellite
View from above satellite

Ground track
Ground track

The orbit data is extracted from the following two-line orbital elements,

1 27665U 03005C   14330.00304378  .00000062  00000-0  58216-4 0  1716
2 27665 039.5739 186.4677 0009161 307.6875 196.7478 14.28255144617323
Epoch (UTC): 26 November 2014 00:04:22
Eccentricity: 0.0009161
inclination: 39.5739°
perigee height: 791 km
apogee height: 804 km
right ascension of ascending node: 186.4677°
argument of perigee: 307.6875°
revolutions per day: 14.28255144
mean anomaly at epoch: 196.7478°
orbit number at epoch: 61732

The dashed part of the orbit path shows where the satellite is in the earth's shadow,  

DLR